Voltar ao catálogo

ARIANE 5 DEB

SYLDA

AtivoHEO
NORAD 39511·DEBRIS·🇫🇷 France

Lançado Feb 6, 2014 de Guiana Space Centre

Loading…

Próximas Passagens (próximas 24 horas)

TLE

AtualizadoSource: Space-Track

Época: Sep 14, 2026, 16:47 UTC

1 39511U 14006D   26257.69932015  .00052293  00000-0  43249-2 0  9992
2 39511   5.7757 310.2591 4972563  59.6530 340.2719  5.71613107171283

Acompanhe ARIANE 5 DEB em tempo real com AllMySat

Download on the App Store